sat.trackr.live / text

‹ back to catalog

KUIPER-00194

NORAD 68577 · 2026-072E

PAYLOAD ACTIVE UNKNOWN

§ Identity

Operator
Country
US
Launch date
2026-04-04
Launch site
AFETR
Launch vehicle
Mass (kg)
RCS (m²)

External: N2YO · Heavens-Above · Gunter

§ Orbital elements

Epoch: 2026-09-20T00:11:52.344672Z

Period
97.30 min
Inclination
51.9017°
Eccentricity
0.0000880
Mean motion
14.79925758 rev/d
Perigee alt
628.9 km
Apogee alt
630.2 km
Semi-major
7,007.7 km
B*
2.6400e-4
RAAN
131.3756°
Arg perigee
101.1672°
Mean anomaly
258.9389°
Rev number
2,523

§ Raw data

KUIPER-001941 68577U 26072E   26263.00824473  .00001792  00000+0  26400-3 0  99902 68577  51.9017 131.3756 0000880 101.1672 258.9389 14.79925758 25231

JSON: /api/v1/satellites/68577 · /tle

For live sub-satellite position, see the globe view (requires WebGL).

§ Visibility from observer

Set your observer location to see the next 7 days of passes ≥ 10°. The values pass through the URL so the page stays shareable.

No JS? Fill the form by hand. The geolocation button needs JavaScript.